This is the latest recevied weather packets stored in our database for station/object K5MGY. If no packets are shown the sender has not sent any weather packets the latest 10 day(s).
| Time | Temp. | Humidity | Pressure | Rain* | Wind** | Luminosity | Snow |
|---|---|---|---|---|---|---|---|
| 1787797162 | 31.11° C | 57% | 1036.6 hPa | 0 mm | - | 0 W/m² | - |
| 1787796857 | 31.11° C | 57% | 1036.7 hPa | 0 mm | - | 0 W/m² | - |
| 1787796556 | 31.11° C | 57% | 1036.5 hPa | 0 mm | - | 0 W/m² | - |
| 1787796253 | 31.11° C | 56% | 1036.2 hPa | 0 mm | - | 0 W/m² | - |
| 1787795950 | 31.11° C | 56% | 1036.2 hPa | 0 mm | - | 0 W/m² | - |
| 1787795646 | 31.67° C | 55% | 1036.2 hPa | 0 mm | - | 0 W/m² | - |
| 1787795346 | 31.67° C | 55% | 1036 hPa | 0 mm | - | 0 W/m² | - |
| 1787795045 | 31.67° C | 55% | 1036 hPa | 0 mm | - | 0 W/m² | - |
| 1787794739 | 32.22° C | 54% | 1036.1 hPa | 0 mm | - | 0 W/m² | - |
| 1787794435 | 32.22° C | 53% | 1035.9 hPa | 0 mm | - | 0 W/m² | - |
| 1787794130 | 32.22° C | 53% | 1035.8 hPa | 0 mm | - | 0 W/m² | - |
| 1787793826 | 32.78° C | 53% | 1036 hPa | 0 mm | - | 0 W/m² | - |
| 1787793521 | 32.78° C | 52% | 1035.9 hPa | 0 mm | - | 0 W/m² | - |
| 1787793217 | 32.78° C | 51% | 1035.7 hPa | 0 mm | - | 0 W/m² | - |
| 1787792912 | 33.33° C | 51% | 1035.8 hPa | 0 mm | - | 1 W/m² | - |
| 1787792612 | 33.33° C | 50% | 1036 hPa | 0 mm | - | 1 W/m² | - |
| 1787792309 | 33.89° C | 50% | 1035.9 hPa | 0 mm | - | 3 W/m² | - |
| 1787792007 | 33.89° C | 49% | 1035.9 hPa | 0 mm | - | 6 W/m² | - |
| 1787791707 | 33.89° C | 48% | 1035.7 hPa | 0 mm | - | 10 W/m² | - |
| 1787791403 | 33.89° C | 48% | 1036 hPa | 0 mm | - | 15 W/m² | - |
| 1787791098 | 34.44° C | 48% | 1035.9 hPa | 0 mm | - | 21 W/m² | - |
| 1787790793 | 34.44° C | 48% | 1035.9 hPa | 0 mm | - | 30 W/m² | - |
| 1787790493 | 34.44° C | 47% | 1035.6 hPa | 0 mm | - | 39 W/m² | - |
| 1787790189 | 34.44° C | 47% | 1035.9 hPa | 0 mm | - | 43 W/m² | - |
| 1787789885 | 33.89° C | 48% | 1035.9 hPa | 0 mm | - | 47 W/m² | - |
* Rain latest hour (hover to see other rain measurements)
** Current wind speed in m/s (hover to see current wind gust speed)